#timestamp,LO_Frequency,Hit,StdDev 
1584171075.6,286046968.2,P
1584171095.4,286046966.2,P
1584171115.2,286046965.4,P
1584171135.1,286046965.8,Y
1584171136.0,286046965.8,P
1584171155.8,286046997.9,P
1584171175.6,286046997.4,N
1584171195.5,286046999.2,N
1584171215.3,286046999.5,N
1584171235.2,286046997.4,N
1584171255.9,286046997.5,N
1584171275.7,286046993.3,N
1584171295.6,286046994.6,N
1584171315.4,286046992.1,N
1584171335.2,286046992.9,N
1584171355.1,286046992.7,N
1584171356.0,286046992.7,N
1584171375.8,286046991.1,N
1584171395.7,286046988.9,N
1584171415.5,286046993.1,N
1584171435.3,286046991.9,N
1584171455.2,286046992.2,N
1584171475.0,286046994.8,N
1584171475.9,286046994.8,N
1584171495.8,286046991.9,N
1584171515.6,286046991.8,N
1584171535.4,286046992.2,N
1584171555.3,286046991.5,N
1584171575.1,286046988.9,N
1584171595.9,286046991.5,N
1584171615.7,286046990.8,N
1584171635.5,286046990.3,N
1584171655.4,286046991.1,N
1584171675.2,286046987.0,N
1584171695.0,286046987.7,N
1584171696.0,286046987.7,Y
1584171715.8,286046994.4,P
1584171735.6,286046991.4,P
1584171755.5,286046988.7,P
1584171775.3,286046989.1,Y
1584171795.1,286046998.9,P
1584171815.9,286047001.1,N
1584171835.7,286046999.0,N
1584171855.6,286046996.5,N
1584171875.4,286046998.5,N
1584171895.2,286046999.0,N
1584171915.1,286046999.3,N
1584171916.0,286046999.3,N
1584171935.8,286046999.0,N
1584171955.7,286046999.2,N
1584171975.5,286046996.5,N
1584171995.3,286046997.6,N
1584172015.2,286046995.1,N
1584172035.0,286046994.6,N
1584172035.9,286046994.6,N
1584172055.8,286046990.3,Y
1584172075.6,286046993.6,P
1584172095.4,286046995.1,N
1584172115.3,286046993.8,P
1584172135.1,286046994.6,Y
1584172155.8,286046999.5,P
1584172175.7,286046997.3,N
1584172195.5,286046995.1,N
1584172215.4,286046997.5,N
1584172235.2,286046995.5,N
1584172255.0,286046995.5,N
1584172255.9,286046995.5,N
1584172275.8,286046997.9,N
1584172295.6,286046995.4,Y
1584172315.4,286046998.3,P
1584172335.3,286047000.7,N
1584172355.1,286046999.0,N
1584172375.9,286046997.4,N
1584172395.7,286046998.3,N
1584172415.5,286047000.6,N
1584172435.4,286046998.1,N
1584172455.2,286047000.6,N
1584172475.1,286047000.6,N
1584172476.0,286047000.6,N
1584172495.8,286046998.5,N
1584172515.6,286046998.6,N
1584172535.5,286046998.3,N
1584172555.3,286046998.6,N
1584172575.1,286047001.1,N
1584172595.9,286046998.3,N
1584172615.7,286046997.0,N
1584172635.6,286046994.0,Y
1584172655.4,286046992.3,P
1584172675.2,286046992.3,N
1584172695.1,286046990.4,P
1584172696.0,286046990.4,N
1584172715.8,286046988.7,Y
1584172735.7,286046996.0,P
1584172755.5,286046993.8,P
1584172775.3,286046995.9,P
1584172795.2,286046996.1,N
